Location: Unspecified
(22.6800°N, 112.2000°E)
Time: 07:09:37
(UTC+08:00)

S-56A Canister/Altair - Pass Details

Date: 26 July 2021
Orbit: 632 x 2500 km, 38.9° (Epoch: 26 September)

Event Time Altitude Azimuth Distance (km) Brightness Sun altitude
Rises 22:47:44 0° 303° (WNW) 5,853 12.8 -40.2°
Reaches altitude 10° 22:51:58 10° 306° (NW) 4,636 12.1 -40.7°
Enters shadow 23:03:01 66° 349° (NNW) 1,767 9.2 -42.1°
Maximum altitude 23:04:12 72° 30° (NNE) 1,656 - -42.2°
Drops below altitude 10° 23:12:09 10° 114° (ESE) 3,113 - -43.1°
Sets 23:14:28 0° 116° (ESE) 3,870 - -43.4°
